Вернуться в каталог

OT-FOREST-19 PATADASTRA

АктивенНаукаSSO
NORAD 69001·PAYLOAD·🇬🇷 Greece

Запущен May 3, 2026 с Vandenberg Space Force Base

Loading…

Ближайшие Пролёты (ближайшие 24 часа)

TLE

СвежийSource: Space-Track

Эпоха: Sep 13, 2026, 16:05 UTC

1 69001U 26100X   26256.67063652  .00001150  00000-0  11626-3 0  9997
2 69001  97.7243 152.6119 0002828  79.2854 280.8684 14.92914943 19899

Отслеживайте OT-FOREST-19 PATADASTRA в реальном времени с AllMySat

Download on the App Store